| time (UTC) | temp C | wind direction | speed KPH | gust KPH | rain 1hr cm | rain 24hr cm | rain mn cm | humidity % | barometer mb |
| 20260904193025 | 25 | 65 | 0.0 | 0.0 | 0.00 | 0.00 | 0.00 | 80 | 1010.4 |
| 20260904191520 | 25 | 5 | 0.0 | 0.0 | 0.00 | 0.00 | 0.00 | 81 | 1010.4 |
| 20260904190015 | 25 | 34 | 0.0 | 0.0 | 0.00 | 0.23 | 0.00 | 83 | 1010.3 |
| 20260904184515 | 25 | 19 | 0.0 | 0.0 | 0.00 | 0.23 | 0.00 | 84 | 1010.3 |
| 20260904183015 | 24 | 24 | 0.0 | 0.0 | 0.00 | 0.23 | 0.00 | 85 | 1010.4 |
| 20260904181513 | 24 | 346 | 0.0 | 0.0 | 0.00 | 0.23 | 0.00 | 86 | 1010.4 |
| 20260904180013 | 23 | 345 | 0.0 | 0.0 | 0.00 | 0.23 | 0.00 | 87 | 1010.4 |
| 20260904174546 | 23 | 326 | 0.0 | 0.0 | 0.00 | 0.23 | 0.00 | 88 | 1010.4 |
| 20260904173045 | 23 | 344 | 0.0 | 0.0 | 0.00 | 0.23 | 0.00 | 90 | 1010.4 |
| 20260904171605 | 23 | 48 | 0.0 | 0.0 | 0.00 | 0.23 | 0.00 | 91 | 1010.3 |
| 20260904170035 | 23 | 14 | 0.0 | 0.0 | 0.00 | 0.23 | 0.00 | 91 | 1010.2 |
| 20260904164535 | 22 | 346 | 0.0 | 0.0 | 0.00 | 0.23 | 0.00 | 92 | 1009.9 |
| 20260904163047 | 22 | 348 | 0.0 | 0.0 | 0.00 | 0.23 | 0.00 | 94 | 1009.7 |
| 20260904161530 | 22 | 315 | 0.0 | 0.0 | 0.00 | 0.23 | 0.00 | 94 | 1009.7 |
| 20260904160029 | 22 | 344 | 0.0 | 0.0 | 0.00 | 0.23 | 0.00 | 94 | 1009.5 |
| 20260904154528 | 22 | 328 | 0.0 | 0.0 | 0.00 | 0.23 | 0.00 | 94 | 1009.3 |
| 20260904153032 | 22 | 329 | 0.0 | 0.0 | 0.00 | 0.23 | 0.00 | 94 | 1009.1 |
| 20260904151534 | 23 | 346 | 0.0 | 0.0 | 0.00 | 0.23 | 0.00 | 95 | 1008.9 |
| 20260904150023 | 23 | 24 | 0.0 | 0.0 | 0.00 | 0.23 | 0.00 | 95 | 1008.8 |
| 20260904144520 | 22 | 24 | 0.0 | 0.0 | 0.00 | 0.23 | 0.00 | 96 | 1008.6 |
| 20260904143017 | 22 | 24 | 0.0 | 0.0 | 0.00 | 0.23 | 0.00 | 96 | 1008.4 |
| 20260904141516 | 22 | 24 | 0.0 | 0.0 | 0.00 | 0.23 | 0.00 | 96 | 1008.4 |
| 20260904140015 | 22 | 24 | 0.0 | 0.0 | 0.00 | 0.23 | 0.00 | 96 | 1008.5 |
| 20260904134520 | 22 | 24 | 0.0 | 0.0 | 0.00 | 0.23 | 0.00 | 96 | 1008.4 |
| 20260904133012 | 22 | 24 | 0.0 | 0.0 | 0.00 | 0.23 | 0.00 | 95 | 1008.3 |
| 20260904131509 | 21 | 24 | 0.0 | 0.0 | 0.00 | 0.23 | 0.00 | 95 | 1008.4 |
| 20260904130007 | 21 | 24 | 0.0 | 0.0 | 0.00 | 0.23 | 0.00 | 95 | 1008.3 |
| 20260904124505 | 21 | 24 | 0.0 | 0.0 | 0.00 | 0.23 | 0.00 | 95 | 1008.1 |
| 20260904123005 | 21 | 24 | 0.0 | 0.0 | 0.00 | 0.23 | 0.00 | 95 | 1008.0 |
| 20260904121533 | 21 | 26 | 0.0 | 0.0 | 0.00 | 0.23 | 0.00 | 95 | 1007.6 |
| 20260904120042 | 21 | 113 | 0.0 | 0.0 | 0.00 | 0.23 | 0.00 | 95 | 1007.5 |
| 20260904114528 | 22 | 355 | 0.0 | 0.0 | 0.00 | 0.23 | 0.00 | 95 | 1007.6 |
| 20260904113025 | 22 | 5 | 0.0 | 0.0 | 0.00 | 0.23 | 0.00 | 95 | 1007.2 |
| 20260904111524 | 22 | 17 | 0.0 | 0.0 | 0.00 | 0.23 | 0.00 | 94 | 1007.2 |
| 20260904110025 | 22 | 5 | 0.0 | 0.0 | 0.00 | 0.23 | 0.00 | 94 | 1007.1 |
| 20260904104553 | 22 | 5 | 0.0 | 0.0 | 0.00 | 0.23 | 0.00 | 94 | 1007.0 |
| 20260904103051 | 22 | 5 | 0.0 | 0.0 | 0.00 | 0.23 | 0.00 | 94 | 1007.0 |
| 20260904101522 | 23 | 5 | 0.0 | 0.0 | 0.00 | 0.23 | 0.00 | 93 | 1006.9 |
| 20260904100019 | 23 | 5 | 0.0 | 0.0 | 0.00 | 0.23 | 0.00 | 93 | 1007.0 |
| 20260904094515 | 23 | 355 | 0.0 | 0.0 | 0.00 | 0.23 | 0.00 | 93 | 1007.1 |
| 20260904093013 | 23 | 160 | 0.0 | 0.0 | 0.00 | 0.23 | 0.00 | 92 | 1006.7 |
| 20260904091513 | 23 | 160 | 0.0 | 0.0 | 0.00 | 0.23 | 0.00 | 92 | 1006.6 |
| 20260904090020 | 23 | 160 | 0.0 | 0.0 | 0.00 | 0.23 | 0.00 | 92 | 1006.6 |
| 20260904084548 | 23 | 160 | 0.0 | 0.0 | 0.00 | 0.23 | 0.00 | 92 | 1006.5 |
| 20260904083040 | 23 | 160 | 0.0 | 0.0 | 0.00 | 0.23 | 0.00 | 92 | 1006.4 |
| 20260904081535 | 23 | 160 | 0.0 | 0.0 | 0.00 | 0.23 | 0.00 | 91 | 1006.4 |
| 20260904080050 | 24 | 160 | 0.0 | 0.0 | 0.00 | 0.23 | 0.00 | 90 | 1006.3 |
| 20260904074537 | 24 | 160 | 0.0 | 0.0 | 0.00 | 0.23 | 0.00 | 90 | 1006.4 |
| 20260904073032 | 24 | 160 | 0.0 | 0.0 | 0.00 | 0.23 | 0.00 | 90 | 1006.5 |
| 20260904071603 | 24 | 156 | 0.0 | 0.0 | 0.00 | 0.23 | 0.00 | 90 | 1006.5 |
| 20260904064555 | 25 | 170 | 0.0 | 0.0 | 0.00 | 0.23 | 0.00 | 89 | 1006.4 |
| 20260904063112 | 25 | 171 | 0.0 | 0.0 | 0.00 | 0.23 | 0.00 | 88 | 1006.5 |
| 20260904061553 | 25 | 153 | 0.0 | 0.0 | 0.00 | 0.23 | 0.00 | 88 | 1006.4 |
| 20260904060054 | 25 | 169 | 0.0 | 0.0 | 0.00 | 0.23 | 0.00 | 87 | 1006.5 |
| 20260904054550 | 25 | 147 | 0.0 | 0.0 | 0.00 | 0.23 | 0.00 | 87 | 1006.4 |
| 20260904053058 | 25 | 175 | 0.0 | 0.0 | 0.00 | 0.23 | 0.00 | 86 | 1006.5 |
| 20260904051544 | 25 | 157 | 0.0 | 0.0 | 0.00 | 0.23 | 0.00 | 85 | 1006.3 |
| 20260904050042 | 25 | 144 | 0.0 | 0.0 | 0.00 | 0.23 | 0.23 | 85 | 1006.2 |
| 20260904044542 | 25 | 165 | 0.0 | 0.0 | 0.00 | 0.23 | 0.23 | 84 | 1006.2 |
| 20260904043011 | 25 | 175 | 0.0 | 0.0 | 0.00 | 0.23 | 0.23 | 83 | 1006.3 |
| 20260904041510 | 25 | 163 | 0.0 | 0.0 | 0.00 | 0.23 | 0.23 | 83 | 1006.1 |
| 20260904040012 | 25 | 167 | 0.0 | 0.0 | 0.00 | 0.23 | 0.23 | 82 | 1006.2 |
| 20260904034507 | 25 | 150 | 0.0 | 0.0 | 0.00 | 0.23 | 0.23 | 82 | 1006.1 |
| 20260904033008 | 25 | 148 | 0.0 | 0.0 | 0.00 | 0.23 | 0.23 | 81 | 1006.2 |
| 20260904031506 | 26 | 144 | 0.0 | 0.0 | 0.00 | 0.23 | 0.23 | 81 | 1006.2 |
| 20260904030004 | 26 | 138 | 0.0 | 0.0 | 0.00 | 0.23 | 0.23 | 81 | 1006.4 |
| 20260904024604 | 26 | 138 | 0.0 | 0.0 | 0.00 | 0.23 | 0.23 | 80 | 1006.2 |
| 20260904023032 | 26 | 138 | 0.0 | 0.0 | 0.00 | 0.23 | 0.23 | 80 | 1006.3 |
| 20260904021546 | 26 | 119 | 0.0 | 0.0 | 0.00 | 0.23 | 0.23 | 79 | 1006.2 |
| 20260904020030 | 26 | 105 | 0.0 | 0.0 | 0.00 | 0.23 | 0.23 | 77 | 1006.1 |
| 20260904014529 | 27 | 121 | 0.0 | 0.0 | 0.00 | 0.23 | 0.23 | 76 | 1006.0 |
| 20260904013028 | 27 | 146 | 0.0 | 0.0 | 0.00 | 0.23 | 0.23 | 75 | 1005.7 |
| 20260904011528 | 27 | 110 | 0.0 | 0.0 | 0.00 | 0.23 | 0.23 | 74 | 1005.5 |
| 20260904010058 | 27 | 131 | 0.0 | 0.0 | 0.00 | 0.23 | 0.23 | 73 | 1005.5 |
| 20260904004557 | 28 | 136 | 0.0 | 0.0 | 0.00 | 0.23 | 0.23 | 70 | 1005.4 |
| 20260904003054 | 28 | 141 | 0.0 | 0.0 | 0.00 | 0.23 | 0.23 | 68 | 1005.4 |
| 20260904001553 | 28 | 139 | 0.0 | 0.0 | 0.00 | 0.23 | 0.23 | 67 | 1005.5 |
| 20260904000053 | 28 | 142 | 0.0 | 0.0 | 0.00 | 0.23 | 0.23 | 66 | 1005.7 |
| 20260903234553 | 29 | 144 | 0.0 | 0.0 | 0.00 | 0.23 | 0.23 | 65 | 1005.6 |
| 20260903233034 | 29 | 205 | 0.0 | 0.0 | 0.00 | 0.23 | 0.23 | 64 | 1005.7 |
| 20260903231538 | 29 | 161 | 0.0 | 0.0 | 0.00 | 0.23 | 0.23 | 63 | 1005.4 |
| 20260903230019 | 30 | 147 | 0.0 | 0.0 | 0.00 | 0.23 | 0.23 | 62 | 1004.9 |
| 20260903224519 | 30 | 142 | 0.0 | 0.0 | 0.00 | 0.23 | 0.23 | 62 | 1004.8 |
| 20260903223018 | 29 | 155 | 0.0 | 0.0 | 0.00 | 0.23 | 0.23 | 63 | 1004.5 |
| 20260903221516 | 30 | 144 | 0.0 | 0.0 | 0.00 | 0.23 | 0.23 | 63 | 1004.9 |
| 20260903220011 | 30 | 103 | 0.0 | 0.0 | 0.00 | 0.23 | 0.23 | 63 | 1005.1 |
| 20260903214509 | 29 | 144 | 0.0 | 0.0 | 0.00 | 0.23 | 0.23 | 63 | 1005.4 |
| 20260903213008 | 29 | 150 | 0.0 | 0.0 | 0.00 | 0.23 | 0.23 | 63 | 1005.3 |
| 20260903211506 | 28 | 121 | 0.0 | 0.0 | 0.00 | 0.23 | 0.23 | 64 | 1005.2 |
| 20260903210002 | 28 | 130 | 0.0 | 0.0 | 0.00 | 0.23 | 0.23 | 64 | 1005.3 |
| 20260903204607 | 28 | 165 | 0.0 | 0.0 | 0.00 | 0.23 | 0.23 | 66 | 1005.6 |
| 20260903203100 | 28 | 148 | 0.0 | 0.0 | 0.00 | 0.23 | 0.23 | 65 | 1005.4 |
| 20260903201558 | 28 | 174 | 0.0 | 0.0 | 0.00 | 0.23 | 0.23 | 64 | 1005.7 |
| 20260903200027 | 28 | 175 | 0.0 | 0.0 | 0.00 | 0.23 | 0.23 | 64 | 1006.2 |
| 20260903194533 | 28 | 101 | 0.0 | 0.0 | 0.00 | 0.23 | 0.23 | 69 | 1006.1 |